Regional Weather Roundup
Issued by NWS

Home | Current Version | Previous Version | Graphics & Text | Print | Product List | Glossary On
Versions: 1 2 3 4 5 6 7 8 9 10 11 12 13 14 15 16 17 18 19 20 21 22 23 24 25 26 27 28 29 30 31 32 33 34 35 36 37 38 39 40 41 42 43 44 45 46 47 48 49 50
000
ASUS45 KBOU 020107
RWRCO

WEATHER ROUNDUP FOR COLORADO
NATIONAL WEATHER SERVICE DENVER/BOULDER CO
700 PM MDT MON JUN 01 2015

NOTE: "FAIR" INDICATES FEW OR NO CLOUDS BELOW 12000 FEET WITH NO
SIGNIFICANT WEATHER AND/OR OBSTRUCTIONS TO VISIBILITY.

COZ001>005-013-030-031-020200-
...NORTHWEST COLORADO...

CITY           SKY/WX    TMP DP  RH WIND       PRES   REMARKS
CRAIG          MOSUNNY   76  46  34 S7        29.98F
HAYDEN         MOSUNNY   72  45  37 E15       30.02F
MEEKER         SUNNY     79  39  23 SW12      30.00F
MOUNT WERNER   NOT AVBL
STEAMBOAT SPGS PTSUNNY   67  49  52 E7        30.05F
WALDEN         CLOUDY    57  37  47 SE14      30.17S
$$

COZ006>008-011-020200-
...WEST CENTRAL VALLEYS...

CITY           SKY/WX    TMP DP  RH WIND       PRES   REMARKS
GRAND JUNCTION MOSUNNY   86  33  15 SW7       29.87F
MONTROSE       MOSUNNY   85  29  13 SW15G26   29.99F
EAGLE          MOSUNNY   79  50  36 NE9       30.06F
RIFLE          MOSUNNY   79  42  26 W5        29.94S
DELTA          MOSUNNY   90  30  11 S16G23    29.92F
NUCLA          MOSUNNY   86  23  10 SW16G28   30.03F
$$

COZ017>023-064>068-020200-
...SOUTHWEST COLORADO...

CITY           SKY/WX    TMP DP  RH WIND       PRES   REMARKS
DURANGO        MOSUNNY   80  31  16 SW17      30.10F
CORTEZ         SUNNY     86  32  14 SW14      30.03F
PAGOSA SPRINGS MOSUNNY   77  25  14 SW9G20    30.19F
TELLURIDE      MOSUNNY   69  28  21 SW12G20   30.30S
WOLF CREEK PAS NOT AVBL
$$

COZ009-010-012-014-032>034-037-058>063-020200-
...CENTRAL COLORADO...

CITY           SKY/WX    TMP DP  RH WIND       PRES   REMARKS
ASPEN          MOSUNNY   70  35  27 SE18G29   30.16S
BUENA VISTA    PTSUNNY   66  34  30 W14       30.23S
COPPER MTN     PTSUNNY   54  32  43 S7        30.49F
BERTHOUD PASS  PTSUNNY   39  32  75 NW20G33   30.52F
COTTONWOOD PAS NOT AVBL
GUNNISON       PTSUNNY   70  34  26 NW5       30.21F
KREMMLING      CLOUDY    72  32  23 S3        30.14F
LEADVILLE      PTSUNNY   60  28  29 SW15G31   30.33S
MONARCH PASS   MOSUNNY   46  32  57 SW22      30.61S
SALIDA         PTSUNNY   71  37  29 W8        30.27S
SUNLIGHT       MOSUNNY   59  30  33 CALM      30.38S
WILKERSON PASS MOSUNNY   52  32  46 SW3       30.48S
$$

COZ069>075-020200-
...SAN LUIS VALLEY/SANGRE DE CRISTO MOUNTAINS...

CITY           SKY/WX    TMP DP  RH WIND       PRES   REMARKS
ALAMOSA        MOSUNNY   70  36  28 E6        30.19F
LA VETA PASS   MOSUNNY  N/A N/A N/A MISG      30.39S
SAGUACHE       MOSUNNY   64  41  42 S8        30.23F
$$

COZ035-036-038>040-020200-
...NORTHERN COLORADO FRONT RANGE...

CITY           SKY/WX    TMP DP  RH WIND       PRES   REMARKS
DENVER INTL AP CLOUDY    71  51  49 SE20      30.02F
DMNS CITY PARK NOT AVBL
AURORA         NOT AVBL
FRONT RANGE AP PTSUNNY   73  48  40 CALM      30.08R
ERIE MUNI ARPT PTSUNNY   76  43  30 S12G18    29.99F
BOULDER MUN AP PTSUNNY   73  46  38 SW7       30.01S
CENTENNIAL     PTSUNNY   76  40  27 VRB5      30.05F
BROOMFIELD     PTSUNNY   73  46  38 SE9       30.05F
FORT COLLINS   PTSUNNY   75  52  43 SE9       29.98R
LONGMONT       PTSUNNY   76  46  34 SW8       30.01R
$$

COZ041-046-047-076>085-087-088-020200-
...PIKES PEAK/PALMER DIVIDE AND SOUTHERN FOOTHILLS...

CITY           SKY/WX    TMP DP  RH WIND       PRES   REMARKS
COLO. SPRINGS  CLOUDY    74  42  31 CALM      30.10F
A. F. ACADEMY  NOT AVBL
ELLICOTT       CLOUDY   N/A N/A N/A N6        30.11R THUNDER
FALCON         CLOUDY    72  37  28 CALM      30.16F
FORT CARSON    NOT AVBL
LIMON          PTSUNNY   73  55  53 SE7       30.04F
MONUMENT HILL  CLOUDY    66  45  45 N5        30.16F
TRINIDAD       CLOUDY    75  46  35 SW9       30.08R
$$

COZ042>045-048>051-090-091-020200-
...NORTHEAST COLORADO...

CITY           SKY/WX    TMP DP  RH WIND       PRES   REMARKS
GREELEY ARPT   PTSUNNY   77  52  41 S12       29.98S
AKRON          CLOUDY    75  50  41 SW9       29.97R
BURLINGTON     CLOUDY    78  61  55 SE18      29.99F
WRAY           SUNNY     81  60  49 SE14G22   29.93F
STERLING       CLOUDY    73  55  53 SW10      29.92R
HOLYOKE        NOT AVBL
FORT MORGAN    CLOUDY   N/A N/A N/A SW7       29.97R
$$

COZ086-089-092>099-020200-
...SOUTHEAST COLORADO...

CITY           SKY/WX    TMP DP  RH WIND       PRES   REMARKS
PUEBLO         CLOUDY    66  54  65 E9G18     30.03S THUNDER
LA JUNTA       PTSUNNY   81  52  36 MISG      29.95R
LAMAR          PTSUNNY   82  58  43 SE15G25   29.93R
SPRINGFIELD      N/A     76  60  57 S12       30.00F
$$



USA.gov is the U.S. government's official web portal to all federal, state and local government web resources and services.